AirNav   Jet Aviation Boston
 
 1551 users online  

KRWN Arens Field Airport
Winamac, Indiana, USA

GOING TO WINAMAC?


FAA INFORMATION EFFECTIVE 24 MAY 2018

Location

FAA Identifier: RWN
Lat/Long: 41-05-32.1470N / 086-36-46.3360W
41-05.535783N / 086-36.772267W
41.0922631 / -86.6128711
(estimated)
Elevation: 708.3 ft. / 215.9 m (surveyed)
Variation: 03W (2000)
From city: 3 miles N of WINAMAC, IN
Time zone: UTC -4 (UTC -5 during Standard Time)
Zip code: 46996

Airport Operations

Airport use: Open to the public
Activation date: 08/1969
Control tower: no
ARTCC: CHICAGO CENTER
FSS: TERRE HAUTE FLIGHT SERVICE STATION
NOTAMs facility: HUF (NOTAM-D service available)
Attendance: MON-SAT 0900-1700
Wind indicator: lighted
Segmented circle: no
Lights: ACTVT REIL RY09/27; LIRL RY 09/27 - 122.8.

Airport Communications

CTAF/UNICOM: 122.8
SOUTH BEND APPROACH: 132.05
SOUTH BEND DEPARTURE: 132.05
WX AWOS-3 at OXI (14 nm N): 135.775 (574-772-2041)
WX AWOS-3 at RCR (20 nm E): 118.775 (574-223-3560)
  • APCH/DEP SERVICE PROVIDED BY CHICAGO ARTCC ON FREQS 119.85/362.3 (FORT WAYNE RCAG); WHEN SOUTH BEND APCH CTL CLSD.

Nearby radio navigation aids

VOR radial/distance  VOR name  Freq  Var
OXIr173/13.9KNOX VOR/DME115.6000E
GUSr324/34.0GRISSOM VORTAC108.4502W
GSHr225/37.0GOSHEN VORTAC113.7000E
BVTr032/38.3BOILER VORTAC115.1001E

 
NDB name  Hdg/Dist  Freq  Var  ID
LA PORTE167/25.435603WIUL .. ..- .-..

Airport Services

Fuel available: 100LL
Parking: hangars and tiedowns
Airframe service: NONE
Powerplant service: NONE
Bottled oxygen: NONE
Bulk oxygen: NONE

Runway Information

Runway 9/27

Dimensions: 4201 x 75 ft. / 1280 x 23 m
300 FT STWY ON WEST END.
Surface: asphalt/grooved, in excellent condition
Weight bearing capacity: 
Single wheel: RWY 09/27 EST SINGLE WHEEL PAVEMENT STRENGTH 12000 LBS PER AMGR.
Runway edge lights: low intensity
RUNWAY 9  RUNWAY 27
Latitude: 41-05.536993N41-05.534467N
Longitude: 086-37.229102W086-36.314678W
Elevation: 705.6 ft.706.7 ft.
Gradient: 0.1%0.1%
Traffic pattern: leftleft
Runway heading: 093 magnetic, 090 true273 magnetic, 270 true
Displaced threshold: no560 ft.
Markings: nonprecision, in fair conditionnonprecision, in fair condition
Visual slope indicator: 2-light PAPI on left (3.00 degrees glide path)2-light PAPI on left (4.25 degrees glide path)
Runway end identifier lights: yes
REIL OTS INDEFLY.
yes
Touchdown point: yes, no lightsyes, no lights
Obstructions: 10 ft. road, 430 ft. from runway, 23:1 slope to clear
4 FT FENCE 200 FT N.
none

Airport Ownership and Management from official FAA records

Ownership: Publicly-owned
Owner: WINAMAC-PULASKI CO BOAC
2595N. US 35
WINAMAC, IN 46996
Phone 574-946-6785
JIM MCDANIEL, PRES.
Manager: MR. BUD WIDNER
2595 N. US 35
WINAMAC, IN 46996
Phone 574-946-6785

Airport Operational Statistics

Aircraft based on the field: 9
Single engine airplanes: 9
    
Aircraft operations: avg 23/week *
66% local general aviation
34% transient general aviation
* for 12-month period ending 31 December 2015

Instrument Procedures

NOTE: All procedures below are presented as PDF files. If you need a reader for these files, you should download the free Adobe Reader.

NOT FOR NAVIGATION. Please procure official charts for flight.
FAA instrument procedures published for use from 24 May 2018 at 0901Z to 21 June 2018 at 0900Z.

 
IAPs - Instrument Approach Procedures
RNAV (GPS) RWY 09   download (198KB)
RNAV (GPS) RWY 27   download (200KB)
VOR/DME-A   download (141KB)
NOTE: Special Take-Off Minimums/Departure Procedures apply   download (164KB)

Other nearby airports with instrument procedures:

KOXI - Starke County Airport (14 nm N)
KRCR - Fulton County Airport (20 nm E)
C65 - Plymouth Municipal Airport (22 nm NE)
KMCX - White County Airport (24 nm S)
KGGP - Logansport/Cass County Airport (25 nm SE)
 
Loc | Ops | Rwys | IFR | FBO | Links
Com | Nav | Svcs | Stats | Notes

AirNav Hotels Sweepstakes
 
Area around KRWN (Arens Field Airport)
 
Road maps at: MapQuest Bing Google
 
Aerial photo
WARNING: Photo may not be current or correct
Aerial photo of KRWN (Arens Field Airport)
Do you have a better or more recent aerial photo of Arens Field Airport that you would like to share? If so, please send us your photo.

 
Sectional chart

 
Airport distance calculator
Flying to Arens Field Airport? Find the distance to fly.

From to KRWN

Sunrise and sunset
Times for 24-May-2018
 Local
(UTC-4)
 Zulu
(UTC)
Morning civil twilight05:5009:50
Sunrise06:2210:22
Sunset21:0501:05
Evening civil twilight21:3701:37

Current date and time
Zulu (UTC)  24-May-2018 19:25:12
Local (UTC-4)  24-May-2018 15:25:12
 
METAR
KOXI 
14nm N 
241855Z AUTO 13003KT 10SM CLR 27/11 A3015 RMK AO1
KRCR 
20nm E 
241855Z AUTO 14004KT 10SM CLR 28/06 A3017 RMK AO2
KMCX 
24nm S 
241855Z AUTO 10006KT 10SM CLR A3014 RMK AO2
KGGP 
25nm SE 
241855Z AUTO 13006KT 10SM CLR 27/08 A3016 RMK AO2
KRZL 
27nm W 
241855Z AUTO 04007KT 10SM CLR 28/M03 A3014 RMK AO2
KVPZ 
28nm NW 
241856Z AUTO VRB05KT 10SM CLR 29/12 A3015 RMK AO2 SLP204 T02890122
TAF
KGUS 
35nm SE 
241100Z 2411/2517 VRB06KT 9999 SCT030 QNH2993INS TX27/2421Z TN14/2411Z
KSBN 
39nm N 
241725Z 2418/2518 17006KT P6SM SKC FM251300 20006KT P6SM SKC
NOTAMs
Click for the latest NOTAMs
NOTAMs are issued by the DoD/FAA and will open in a separate window not controlled by AirNav.

 

 
 

FBO, Fuel Providers, and Aircraft Ground Support

  
 Business Name 
 
 Contact 
 
 Services / Description 
 
Fuel Prices
 
Comments
  
Airport Management Service, Inc. 574-946-6785
no information available

If you are affiliated with Airport Management Service, Inc. and would like to show here your services, contact info, web link, logo, and more, click here
100LL Jet A
SS $4.19 $2.99 
 Updated 14-May-2018
 
   2 read write
SS=Self service
Update Fuel Prices
 

Would you like to see your business listed on this page?

 If your business provides an interesting product or service to pilots, flight crews, aircraft, or users of the Arens Field Airport, you should consider listing it here.  To start the listing process, click on the button below
 
Add a business
 

Other Pages about Arens Field Airport

Update a link
 
Copyright © AirNav, LLC. All rights reserved. Privacy Policy  Contact